Year,Month,Day,Hour,Minute,Value (Times are PST for temperature in C)
2014,08,27,00,00,17.80
2014,08,27,00,01,17.80
2014,08,27,00,02,17.80
2014,08,27,00,03,17.80
2014,08,27,00,04,17.80
2014,08,27,00,05,17.70
2014,08,27,00,06,17.70
2014,08,27,00,07,17.70
2014,08,27,00,08,17.70
2014,08,27,00,09,17.70
2014,08,27,00,10,17.70
2014,08,27,00,11,17.70
2014,08,27,00,12,17.70
2014,08,27,00,13,17.70
2014,08,27,00,14,17.70
2014,08,27,00,15,17.70
2014,08,27,00,16,17.70
2014,08,27,00,17,17.70
2014,08,27,00,18,17.70
2014,08,27,00,19,17.70
2014,08,27,00,20,17.60
2014,08,27,00,21,17.60
2014,08,27,00,22,17.60
2014,08,27,00,23,17.60
2014,08,27,00,24,17.60
2014,08,27,00,25,17.60
2014,08,27,00,26,17.60
2014,08,27,00,27,17.60
2014,08,27,00,28,17.60
2014,08,27,00,29,17.60
2014,08,27,00,30,17.60
2014,08,27,00,31,17.60
2014,08,27,00,32,17.60
2014,08,27,00,33,17.60
2014,08,27,00,34,17.50
2014,08,27,00,35,17.50
2014,08,27,00,36,17.50
2014,08,27,00,37,17.50
2014,08,27,00,38,17.50
2014,08,27,00,39,17.50
2014,08,27,00,40,17.40
2014,08,27,00,41,17.40
2014,08,27,00,42,17.40
2014,08,27,00,43,17.40
2014,08,27,00,44,17.40
2014,08,27,00,45,17.40
2014,08,27,00,46,17.40
2014,08,27,00,47,17.40
2014,08,27,00,48,17.40
2014,08,27,00,49,17.40
2014,08,27,00,50,17.40
2014,08,27,00,51,17.40
2014,08,27,00,52,17.30
2014,08,27,00,53,17.30
2014,08,27,00,54,17.30
2014,08,27,00,55,17.30
2014,08,27,00,56,17.30
2014,08,27,00,57,17.30
2014,08,27,00,58,17.30
2014,08,27,00,59,17.30
2014,08,27,01,00,17.30
2014,08,27,01,01,17.30
2014,08,27,01,02,17.30
2014,08,27,01,03,17.30
2014,08,27,01,04,17.30
2014,08,27,01,05,17.30
2014,08,27,01,06,17.30
2014,08,27,01,07,17.30
2014,08,27,01,08,17.30
2014,08,27,01,09,17.30
2014,08,27,01,10,17.30
2014,08,27,01,11,17.30
2014,08,27,01,12,17.30
2014,08,27,01,13,17.30
2014,08,27,01,14,17.30
2014,08,27,01,15,17.30
2014,08,27,01,16,17.20
2014,08,27,01,17,17.20
2014,08,27,01,18,17.20
2014,08,27,01,19,17.20
2014,08,27,01,20,17.20
2014,08,27,01,21,17.20
2014,08,27,01,22,17.20
2014,08,27,01,23,17.20
2014,08,27,01,24,17.20
2014,08,27,01,25,17.20
2014,08,27,01,26,17.20
2014,08,27,01,27,17.20
2014,08,27,01,28,17.20
2014,08,27,01,29,17.20
2014,08,27,01,30,17.10
2014,08,27,01,31,17.10
2014,08,27,01,32,17.10
2014,08,27,01,33,17.10
2014,08,27,01,34,17.10
2014,08,27,01,35,17.10
2014,08,27,01,36,17.10
2014,08,27,01,37,17.10
2014,08,27,01,38,17.10
2014,08,27,01,39,17.10
2014,08,27,01,40,17.10
2014,08,27,01,41,17.10
2014,08,27,01,42,17.10
2014,08,27,01,43,17.10
2014,08,27,01,44,17.10
2014,08,27,01,45,17.10
2014,08,27,01,49,17.00
2014,08,27,01,50,17.00
2014,08,27,01,51,17.00
2014,08,27,01,52,17.00
2014,08,27,01,53,17.00
2014,08,27,01,54,17.00
2014,08,27,01,55,17.00
2014,08,27,01,56,17.00
2014,08,27,01,57,17.00
2014,08,27,01,58,17.00
2014,08,27,01,59,17.00
2014,08,27,02,00,17.00
2014,08,27,02,01,17.00
2014,08,27,02,02,17.00
2014,08,27,02,03,17.00
2014,08,27,02,04,16.90
2014,08,27,02,05,16.90
2014,08,27,02,06,16.90
2014,08,27,02,07,16.90
2014,08,27,02,08,16.90
2014,08,27,02,09,16.90
2014,08,27,02,10,16.90
2014,08,27,02,11,16.90
2014,08,27,02,12,16.90
2014,08,27,02,13,16.90
2014,08,27,02,14,16.90
2014,08,27,02,15,16.90
2014,08,27,02,16,16.90
2014,08,27,02,17,16.90
2014,08,27,02,18,16.90
2014,08,27,02,19,16.90
2014,08,27,02,20,16.90
2014,08,27,02,21,16.90
2014,08,27,02,22,16.90
2014,08,27,02,23,16.90
2014,08,27,02,24,16.90
2014,08,27,02,25,16.90
2014,08,27,02,26,16.90
2014,08,27,02,27,16.90
2014,08,27,02,28,16.90
2014,08,27,02,29,16.90
2014,08,27,02,30,16.90
2014,08,27,02,31,16.90
2014,08,27,02,32,16.90
2014,08,27,02,33,16.90
2014,08,27,02,34,16.90
2014,08,27,02,35,16.90
2014,08,27,02,36,16.90
2014,08,27,02,37,16.90
2014,08,27,02,38,16.90
2014,08,27,02,39,16.90
2014,08,27,02,40,16.90
2014,08,27,02,41,16.90
2014,08,27,02,42,16.90
2014,08,27,02,43,16.90
2014,08,27,02,44,16.90
2014,08,27,02,45,16.90
2014,08,27,02,46,16.90
2014,08,27,02,47,16.90
2014,08,27,02,48,16.90
2014,08,27,02,49,16.90
2014,08,27,02,50,16.90
2014,08,27,02,51,16.90
2014,08,27,02,52,16.90
2014,08,27,02,53,16.90
2014,08,27,02,54,16.90
2014,08,27,02,55,16.90
2014,08,27,02,56,16.90
2014,08,27,02,57,16.90
2014,08,27,02,58,16.90
2014,08,27,02,59,16.90
2014,08,27,03,00,16.90
2014,08,27,03,01,16.90
2014,08,27,03,02,16.90
2014,08,27,03,03,16.90
2014,08,27,03,04,16.90
2014,08,27,03,05,16.90
2014,08,27,03,06,16.90
2014,08,27,03,07,16.90
2014,08,27,03,08,16.90
2014,08,27,03,09,16.90
2014,08,27,03,10,16.90
2014,08,27,03,11,16.90
2014,08,27,03,12,16.90
2014,08,27,03,13,16.90
2014,08,27,03,14,16.90
2014,08,27,03,15,16.90
2014,08,27,03,16,16.90
2014,08,27,03,17,16.80
2014,08,27,03,18,16.80
2014,08,27,03,19,16.80
2014,08,27,03,20,16.80
2014,08,27,03,21,16.80
2014,08,27,03,22,16.80
2014,08,27,03,23,16.80
2014,08,27,03,24,16.80
2014,08,27,03,25,16.80
2014,08,27,03,26,16.80
2014,08,27,03,27,16.80
2014,08,27,03,28,16.80
2014,08,27,03,29,16.80
2014,08,27,03,30,16.90
2014,08,27,03,31,16.90
2014,08,27,03,32,16.90
2014,08,27,03,33,17.00
2014,08,27,03,34,17.00
2014,08,27,03,35,16.90
2014,08,27,03,36,16.90
2014,08,27,03,37,16.90
2014,08,27,03,38,16.90
2014,08,27,03,39,16.90
2014,08,27,03,40,16.90
2014,08,27,03,41,16.90
2014,08,27,03,42,16.90
2014,08,27,03,43,16.90
2014,08,27,03,44,17.00
2014,08,27,03,45,17.00
2014,08,27,03,46,17.00
2014,08,27,03,47,17.00
2014,08,27,03,48,17.00
2014,08,27,03,49,16.90
2014,08,27,03,50,16.90
2014,08,27,03,51,16.90
2014,08,27,03,52,16.90
2014,08,27,03,53,16.90
2014,08,27,03,54,16.90
2014,08,27,03,55,16.90
2014,08,27,03,56,16.90
2014,08,27,03,57,16.90
2014,08,27,03,58,16.90
2014,08,27,03,59,16.90
2014,08,27,04,00,16.90
2014,08,27,04,01,16.90
2014,08,27,04,02,16.90
2014,08,27,04,03,16.90
2014,08,27,04,04,16.90
2014,08,27,04,05,16.90
2014,08,27,04,06,16.90
2014,08,27,04,07,16.90
2014,08,27,04,08,16.80
2014,08,27,04,09,16.80
2014,08,27,04,10,16.90
2014,08,27,04,11,16.90
2014,08,27,04,12,16.90
2014,08,27,04,13,16.90
2014,08,27,04,14,16.90
2014,08,27,04,15,16.90
2014,08,27,04,16,16.90
2014,08,27,04,17,16.90
2014,08,27,04,18,16.90
2014,08,27,04,19,16.90
2014,08,27,04,20,16.90
2014,08,27,04,21,16.90
2014,08,27,04,22,16.90
2014,08,27,04,23,16.90
2014,08,27,04,24,16.90
2014,08,27,04,25,16.90
2014,08,27,04,26,16.90
2014,08,27,04,27,16.90
2014,08,27,04,28,16.90
2014,08,27,04,29,16.90
2014,08,27,04,30,16.90
2014,08,27,04,31,16.90
2014,08,27,04,32,16.90
2014,08,27,04,33,16.90
2014,08,27,04,34,16.90
2014,08,27,04,35,16.90
2014,08,27,04,36,16.90
2014,08,27,04,37,16.90
2014,08,27,04,38,16.90
2014,08,27,04,39,16.90
2014,08,27,04,40,16.90
2014,08,27,04,41,17.00
2014,08,27,04,42,17.00
2014,08,27,04,43,17.00
2014,08,27,04,44,17.00
2014,08,27,04,45,17.00
2014,08,27,04,46,17.00
2014,08,27,04,47,17.00
2014,08,27,04,48,17.00
2014,08,27,04,49,17.00
2014,08,27,04,50,17.00
2014,08,27,04,51,17.00
2014,08,27,04,52,17.00
2014,08,27,04,53,17.00
2014,08,27,04,54,17.00
2014,08,27,04,55,17.00
2014,08,27,04,56,17.10
2014,08,27,04,57,17.10
2014,08,27,04,58,17.10
2014,08,27,04,59,17.10
2014,08,27,05,00,17.10
2014,08,27,05,01,17.10
2014,08,27,05,02,17.00
2014,08,27,05,03,17.10
2014,08,27,05,04,17.00
2014,08,27,05,05,17.00
2014,08,27,05,06,17.00
2014,08,27,05,07,17.10
2014,08,27,05,08,17.00
2014,08,27,05,09,17.10
2014,08,27,05,10,17.10
2014,08,27,05,11,17.10
2014,08,27,05,12,17.10
2014,08,27,05,13,17.10
2014,08,27,05,14,17.10
2014,08,27,05,15,17.10
2014,08,27,05,16,17.10
2014,08,27,05,17,17.10
2014,08,27,05,18,17.10
2014,08,27,05,19,17.10
2014,08,27,05,20,17.10
2014,08,27,05,21,17.10
2014,08,27,05,22,17.10
2014,08,27,05,23,17.10
2014,08,27,05,24,17.10
2014,08,27,05,25,17.10
2014,08,27,05,26,17.10
2014,08,27,05,27,17.10
2014,08,27,05,28,17.10
2014,08,27,05,29,17.10
2014,08,27,05,30,17.10
2014,08,27,05,31,17.00
2014,08,27,05,32,17.00
2014,08,27,05,33,17.00
2014,08,27,05,34,17.00
2014,08,27,05,35,17.00
2014,08,27,05,36,17.00
2014,08,27,05,37,17.00
2014,08,27,05,38,17.00
2014,08,27,05,39,16.90
2014,08,27,05,40,16.90
2014,08,27,05,41,16.90
2014,08,27,05,42,16.90
2014,08,27,05,43,16.90
2014,08,27,05,44,16.90
2014,08,27,05,45,16.90
2014,08,27,05,46,16.90
2014,08,27,05,47,16.90
2014,08,27,05,48,16.90
2014,08,27,05,49,16.90
2014,08,27,05,50,16.80
2014,08,27,05,51,16.80
2014,08,27,05,52,16.80
2014,08,27,05,53,16.80
2014,08,27,05,54,16.80
2014,08,27,05,55,16.80
2014,08,27,05,56,16.80
2014,08,27,05,57,16.80
2014,08,27,05,58,16.80
2014,08,27,05,59,16.80
2014,08,27,06,00,16.80
2014,08,27,06,01,16.80
2014,08,27,06,02,16.80
2014,08,27,06,03,16.80
2014,08,27,06,04,16.80
2014,08,27,06,05,16.80
2014,08,27,06,06,16.80
2014,08,27,06,07,16.70
2014,08,27,06,08,16.70
2014,08,27,06,09,16.70
2014,08,27,06,10,16.70
2014,08,27,06,11,16.70
2014,08,27,06,12,16.70
2014,08,27,06,13,16.70
2014,08,27,06,14,16.70
2014,08,27,06,15,16.70
2014,08,27,06,16,16.60
2014,08,27,06,17,16.60
2014,08,27,06,18,16.60
2014,08,27,06,19,16.60
2014,08,27,06,20,16.60
2014,08,27,06,21,16.60
2014,08,27,06,22,16.60
2014,08,27,06,23,16.60
2014,08,27,06,24,16.60
2014,08,27,06,25,16.60
2014,08,27,06,26,16.60
2014,08,27,06,27,16.60
2014,08,27,06,28,16.60
2014,08,27,06,29,16.60
2014,08,27,06,30,16.60
2014,08,27,06,31,16.60
2014,08,27,06,32,16.60
2014,08,27,06,33,16.50
2014,08,27,06,34,16.50
2014,08,27,06,35,16.50
2014,08,27,06,36,16.50
2014,08,27,06,37,16.50
2014,08,27,06,38,16.50
2014,08,27,06,39,16.50
2014,08,27,06,40,16.50
2014,08,27,06,41,16.50
2014,08,27,06,42,16.50
2014,08,27,06,43,16.50
2014,08,27,06,44,16.50
2014,08,27,06,45,16.50
2014,08,27,06,46,16.50
2014,08,27,06,47,16.50
2014,08,27,06,48,16.50
2014,08,27,06,49,16.50
2014,08,27,06,50,16.50
2014,08,27,06,51,16.50
2014,08,27,06,52,16.50
2014,08,27,06,53,16.50
2014,08,27,06,54,16.50
2014,08,27,06,55,16.50
2014,08,27,06,56,16.50
2014,08,27,06,57,16.50
2014,08,27,06,58,16.50
2014,08,27,06,59,16.50
2014,08,27,07,00,16.50
2014,08,27,07,01,16.50
2014,08,27,07,02,16.50
2014,08,27,07,03,16.50
2014,08,27,07,04,16.50
2014,08,27,07,05,16.50
2014,08,27,07,06,16.40
2014,08,27,07,07,16.40
2014,08,27,07,08,16.40
2014,08,27,07,09,16.40
2014,08,27,07,10,16.40
2014,08,27,07,11,16.40
2014,08,27,07,12,16.40
2014,08,27,07,13,16.40
2014,08,27,07,14,16.40
2014,08,27,07,15,16.40
2014,08,27,07,16,16.40
2014,08,27,07,17,16.40
2014,08,27,07,18,16.40
2014,08,27,07,19,16.40
2014,08,27,07,20,16.40
2014,08,27,07,21,16.40
2014,08,27,07,22,16.50
2014,08,27,07,23,16.50
2014,08,27,07,24,16.60
2014,08,27,07,25,16.60
2014,08,27,07,26,16.60
2014,08,27,07,27,16.60
2014,08,27,07,28,16.70
2014,08,27,07,29,16.70
2014,08,27,07,30,16.70
2014,08,27,07,31,16.70
2014,08,27,07,32,16.70
2014,08,27,07,33,16.70
2014,08,27,07,34,16.80
2014,08,27,07,35,16.80
2014,08,27,07,36,16.80
2014,08,27,07,37,16.80
2014,08,27,07,38,16.80
2014,08,27,07,39,16.80
2014,08,27,07,40,16.90
2014,08,27,07,41,16.90
2014,08,27,07,42,16.90
2014,08,27,07,43,16.90
2014,08,27,07,44,16.90
2014,08,27,07,45,16.90
2014,08,27,07,46,17.00
2014,08,27,07,47,17.00
2014,08,27,07,48,17.00
2014,08,27,07,49,17.10
2014,08,27,07,50,17.10
2014,08,27,07,51,17.10
2014,08,27,07,52,17.10
2014,08,27,07,53,17.20
2014,08,27,07,54,17.20
2014,08,27,07,55,17.20
2014,08,27,07,56,17.20
2014,08,27,07,57,17.30
2014,08,27,07,58,17.30
2014,08,27,07,59,17.30
2014,08,27,08,00,17.40
2014,08,27,08,01,17.40
2014,08,27,08,02,17.50
2014,08,27,08,03,17.50
2014,08,27,08,04,17.60
2014,08,27,08,05,17.60
2014,08,27,08,06,17.70
2014,08,27,08,07,17.70
2014,08,27,08,08,17.70
2014,08,27,08,09,17.70
2014,08,27,08,10,17.80
2014,08,27,08,11,17.80
2014,08,27,08,12,17.80
2014,08,27,08,13,17.90
2014,08,27,08,14,17.90
2014,08,27,08,15,17.90
2014,08,27,08,16,17.90
2014,08,27,08,17,17.90
2014,08,27,08,18,18.00
2014,08,27,08,19,18.00
2014,08,27,08,20,18.00
2014,08,27,08,21,18.10
2014,08,27,08,22,18.10
2014,08,27,08,23,18.10
2014,08,27,08,24,18.10
2014,08,27,08,25,18.10
2014,08,27,08,26,18.10
2014,08,27,08,27,18.10
2014,08,27,08,28,18.10
2014,08,27,08,29,18.10
2014,08,27,08,30,18.10
2014,08,27,08,31,18.10
2014,08,27,08,32,18.10
2014,08,27,08,33,18.10
2014,08,27,08,34,18.10
2014,08,27,08,35,18.10
2014,08,27,08,36,18.10
2014,08,27,08,37,18.10
2014,08,27,08,38,18.10
2014,08,27,08,39,18.10
2014,08,27,08,40,18.10
2014,08,27,08,41,18.00
2014,08,27,08,42,18.00
2014,08,27,08,43,18.00
2014,08,27,08,44,18.00
2014,08,27,08,45,18.00
2014,08,27,08,46,18.00
2014,08,27,08,47,18.00
2014,08,27,08,48,18.10
2014,08,27,08,49,18.00
2014,08,27,08,50,18.00
2014,08,27,08,51,18.00
2014,08,27,08,52,18.00
2014,08,27,08,53,18.00
2014,08,27,08,54,18.00
2014,08,27,08,55,18.00
2014,08,27,08,56,18.10
2014,08,27,08,57,18.10
2014,08,27,08,58,18.10
2014,08,27,08,59,18.10
2014,08,27,09,00,18.10
2014,08,27,09,01,18.10
2014,08,27,09,02,18.10
2014,08,27,09,03,18.10
2014,08,27,09,04,18.10
2014,08,27,09,05,18.10
2014,08,27,09,06,18.10
2014,08,27,09,07,18.10
2014,08,27,09,08,18.10
2014,08,27,09,09,18.10
2014,08,27,09,10,18.10
2014,08,27,09,11,18.10
2014,08,27,09,12,18.20
2014,08,27,09,13,18.20
2014,08,27,09,14,18.20
2014,08,27,09,15,18.20
2014,08,27,09,16,18.20
2014,08,27,09,17,18.20
2014,08,27,09,18,18.20
2014,08,27,09,19,18.30
2014,08,27,09,20,18.30
2014,08,27,09,21,18.30
2014,08,27,09,22,18.40
2014,08,27,09,23,18.40
2014,08,27,09,24,18.40
2014,08,27,09,25,18.40
2014,08,27,09,26,18.40
2014,08,27,09,27,18.40
2014,08,27,09,28,18.50
2014,08,27,09,29,18.50
2014,08,27,09,30,18.50
2014,08,27,09,31,18.50
2014,08,27,09,32,18.50
2014,08,27,09,33,18.50
2014,08,27,09,34,18.50
2014,08,27,09,35,18.50
2014,08,27,09,36,18.50
2014,08,27,09,37,18.60
2014,08,27,09,38,18.60
2014,08,27,09,39,18.60
2014,08,27,09,40,18.70
2014,08,27,09,41,18.70
2014,08,27,09,42,18.70
2014,08,27,09,43,18.80
2014,08,27,09,44,18.80
2014,08,27,09,45,18.90
2014,08,27,09,46,18.90
2014,08,27,09,47,18.90
2014,08,27,09,48,19.00
2014,08,27,09,49,19.10
2014,08,27,09,50,19.10
2014,08,27,09,51,19.20
2014,08,27,09,52,19.20
2014,08,27,09,53,19.30
2014,08,27,09,54,19.40
2014,08,27,09,55,19.40
2014,08,27,09,56,19.50
2014,08,27,09,57,19.60
2014,08,27,09,58,19.60
2014,08,27,09,59,19.70
2014,08,27,10,00,19.70
2014,08,27,10,01,19.70
2014,08,27,10,02,19.70
2014,08,27,10,03,19.70
2014,08,27,10,04,19.70
2014,08,27,10,05,19.70
2014,08,27,10,06,19.70
2014,08,27,10,07,19.70
2014,08,27,10,08,19.70
2014,08,27,10,09,19.70
2014,08,27,10,10,19.70
2014,08,27,10,11,19.70
2014,08,27,10,12,19.70
2014,08,27,10,13,19.70
2014,08,27,10,14,19.70
2014,08,27,10,15,19.70
2014,08,27,10,16,19.80
2014,08,27,10,17,19.70
2014,08,27,10,18,19.70
2014,08,27,10,19,19.70
2014,08,27,10,20,19.70
2014,08,27,10,21,19.70
2014,08,27,10,22,19.60
2014,08,27,10,23,19.60
2014,08,27,10,24,19.70
2014,08,27,10,25,19.70
2014,08,27,10,26,19.80
2014,08,27,10,27,19.80
2014,08,27,10,28,19.90
2014,08,27,10,29,19.90
2014,08,27,10,30,20.00
2014,08,27,10,31,20.00
2014,08,27,10,32,20.10
2014,08,27,10,33,20.10
2014,08,27,10,34,20.20
2014,08,27,10,35,20.20
2014,08,27,10,36,20.20
2014,08,27,10,37,20.20
2014,08,27,10,38,20.20
2014,08,27,10,39,20.20
2014,08,27,10,40,20.30
2014,08,27,10,41,20.30
2014,08,27,10,42,20.40
2014,08,27,10,43,20.40
2014,08,27,10,44,20.50
2014,08,27,10,45,20.60
2014,08,27,10,46,20.60
2014,08,27,10,47,20.60
2014,08,27,10,48,20.70
2014,08,27,10,49,20.70
2014,08,27,10,50,20.70
2014,08,27,10,51,20.70
2014,08,27,10,52,20.70
2014,08,27,10,53,20.80
2014,08,27,10,54,20.80
2014,08,27,10,55,20.80
2014,08,27,10,56,20.90
2014,08,27,10,57,20.90
2014,08,27,10,58,21.00
2014,08,27,10,59,21.00
2014,08,27,11,00,21.10
2014,08,27,11,01,21.20
2014,08,27,11,02,21.10
2014,08,27,11,03,21.10
2014,08,27,11,04,21.20
2014,08,27,11,05,21.20
2014,08,27,11,06,21.10
2014,08,27,11,07,21.10
2014,08,27,11,08,21.10
2014,08,27,11,09,21.10
2014,08,27,11,10,21.10
2014,08,27,11,11,21.00
2014,08,27,11,12,21.00
2014,08,27,11,13,20.90
2014,08,27,11,14,20.90
2014,08,27,11,15,20.90
2014,08,27,11,16,20.90
2014,08,27,11,17,21.00
2014,08,27,11,18,21.00
2014,08,27,11,19,21.10
2014,08,27,11,20,21.20
2014,08,27,11,21,21.20
2014,08,27,11,22,21.30
2014,08,27,11,23,21.40
2014,08,27,11,24,21.50
2014,08,27,11,25,21.60
2014,08,27,11,26,21.60
2014,08,27,11,27,21.70
2014,08,27,11,28,21.80
2014,08,27,11,29,21.90
2014,08,27,11,30,22.00
2014,08,27,11,31,22.10
2014,08,27,11,32,22.20
2014,08,27,11,33,22.30
2014,08,27,11,34,22.40
2014,08,27,11,35,22.50
2014,08,27,11,36,22.60
2014,08,27,11,37,22.70
2014,08,27,11,38,22.80
2014,08,27,11,39,22.80
2014,08,27,11,40,22.90
2014,08,27,11,41,22.90
2014,08,27,11,42,23.00
2014,08,27,11,43,23.10
2014,08,27,11,44,23.00
2014,08,27,11,45,23.00
2014,08,27,11,46,23.00
2014,08,27,11,47,23.10
2014,08,27,11,48,23.10
2014,08,27,11,49,23.10
2014,08,27,11,50,23.20
2014,08,27,11,51,23.20
2014,08,27,11,52,23.30
2014,08,27,11,53,23.30
2014,08,27,11,54,23.30
2014,08,27,11,55,23.30
2014,08,27,11,56,23.30
2014,08,27,11,57,23.40
2014,08,27,11,58,23.40
2014,08,27,11,59,23.40
2014,08,27,12,00,23.30
2014,08,27,12,01,23.20
2014,08,27,12,02,23.30
2014,08,27,12,03,23.30
2014,08,27,12,04,23.30
2014,08,27,12,05,23.30
2014,08,27,12,06,23.40
2014,08,27,12,07,23.50
2014,08,27,12,08,23.50
2014,08,27,12,09,23.60
2014,08,27,12,10,23.70
2014,08,27,12,11,23.80
2014,08,27,12,12,23.80
2014,08,27,12,13,23.90
2014,08,27,12,14,24.00
2014,08,27,12,15,24.10
2014,08,27,12,16,24.00
2014,08,27,12,17,24.00
2014,08,27,12,18,24.10
2014,08,27,12,19,24.10
2014,08,27,12,20,24.00
2014,08,27,12,21,24.00
2014,08,27,12,22,24.00
2014,08,27,12,23,23.90
2014,08,27,12,24,23.90
2014,08,27,12,25,23.80
2014,08,27,12,26,23.80
2014,08,27,12,27,23.80
2014,08,27,12,28,23.80
2014,08,27,12,29,23.80
2014,08,27,12,30,23.90
2014,08,27,12,31,24.00
2014,08,27,12,32,24.10
2014,08,27,12,33,24.20
2014,08,27,12,34,24.30
2014,08,27,12,35,24.30
2014,08,27,12,36,24.40
2014,08,27,12,37,24.50
2014,08,27,12,38,24.50
2014,08,27,12,39,24.50
2014,08,27,12,40,24.40
2014,08,27,12,41,24.40
2014,08,27,12,42,24.40
2014,08,27,12,43,24.40
2014,08,27,12,44,24.40
2014,08,27,12,45,24.50
2014,08,27,12,46,24.60
2014,08,27,12,47,24.60
2014,08,27,12,48,24.70
2014,08,27,12,49,24.80
2014,08,27,12,50,24.90
2014,08,27,12,51,24.90
2014,08,27,12,52,24.90
2014,08,27,12,53,24.80
2014,08,27,12,54,24.70
2014,08,27,12,55,24.50
2014,08,27,12,56,24.40
2014,08,27,12,57,24.30
2014,08,27,12,58,24.10
2014,08,27,12,59,24.00
2014,08,27,13,00,24.00
2014,08,27,13,01,23.90
2014,08,27,13,02,23.80
2014,08,27,13,03,23.80
2014,08,27,13,04,23.80
2014,08,27,13,05,23.70
2014,08,27,13,06,23.70
2014,08,27,13,07,23.70
2014,08,27,13,08,23.70
2014,08,27,13,09,23.80
2014,08,27,13,10,23.90
2014,08,27,13,11,24.00
2014,08,27,13,12,24.10
2014,08,27,13,13,24.20
2014,08,27,13,14,24.30
2014,08,27,13,15,24.50
2014,08,27,13,16,24.70
2014,08,27,13,17,24.80
2014,08,27,13,18,25.00
2014,08,27,13,19,25.10
2014,08,27,13,20,25.30
2014,08,27,13,21,25.40
2014,08,27,13,22,25.60
2014,08,27,13,23,25.70
2014,08,27,13,24,25.80
2014,08,27,13,25,25.90
2014,08,27,13,26,25.90
2014,08,27,13,27,26.10
2014,08,27,13,28,26.20
2014,08,27,13,29,26.30
2014,08,27,13,30,26.40
2014,08,27,13,31,26.60
2014,08,27,13,32,26.70
2014,08,27,13,33,26.80
2014,08,27,13,34,26.90
2014,08,27,13,35,27.10
2014,08,27,13,36,27.20
2014,08,27,13,37,27.20
2014,08,27,13,38,27.30
2014,08,27,13,39,27.40
2014,08,27,13,40,27.40
2014,08,27,13,41,27.40
2014,08,27,13,42,27.40
2014,08,27,13,43,27.40
2014,08,27,13,44,27.40
2014,08,27,13,45,27.40
2014,08,27,13,46,27.40
2014,08,27,13,47,27.40
2014,08,27,13,48,27.40
2014,08,27,13,49,27.50
2014,08,27,13,50,27.50
2014,08,27,13,51,27.60
2014,08,27,13,52,27.60
2014,08,27,13,53,27.70
2014,08,27,13,54,27.70
2014,08,27,13,55,27.80
2014,08,27,13,56,27.90
2014,08,27,13,57,27.90
2014,08,27,13,58,27.80
2014,08,27,13,59,27.90
2014,08,27,14,00,27.90
2014,08,27,14,01,27.90
2014,08,27,14,02,27.90
2014,08,27,14,03,27.90
2014,08,27,14,04,28.00
2014,08,27,14,05,28.00
2014,08,27,14,06,28.10
2014,08,27,14,07,28.10
2014,08,27,14,08,28.20
2014,08,27,14,09,28.30
2014,08,27,14,10,28.40
2014,08,27,14,11,28.40
2014,08,27,14,12,28.50
2014,08,27,14,13,28.70
2014,08,27,14,14,28.70
2014,08,27,14,15,28.70
2014,08,27,14,16,28.70
2014,08,27,14,17,28.80
2014,08,27,14,18,28.80
2014,08,27,14,19,28.80
2014,08,27,14,20,28.80
2014,08,27,14,21,28.80
2014,08,27,14,22,28.90
2014,08,27,14,23,28.90
2014,08,27,14,24,28.90
2014,08,27,14,25,28.90
2014,08,27,14,26,28.90
2014,08,27,14,27,28.90
2014,08,27,14,28,28.90
2014,08,27,14,29,28.90
2014,08,27,14,30,28.80
2014,08,27,14,31,28.80
2014,08,27,14,32,28.80
2014,08,27,14,33,28.80
2014,08,27,14,34,28.80
2014,08,27,14,35,28.80
2014,08,27,14,36,28.90
2014,08,27,14,37,28.90
2014,08,27,14,38,29.00
2014,08,27,14,39,29.00
2014,08,27,14,40,29.10
2014,08,27,14,41,29.10
2014,08,27,14,42,29.20
2014,08,27,14,43,29.30
2014,08,27,14,44,29.30
2014,08,27,14,45,29.30
2014,08,27,14,46,29.30
2014,08,27,14,47,29.30
2014,08,27,14,48,29.30
2014,08,27,14,49,29.20
2014,08,27,14,50,29.20
2014,08,27,14,51,29.30
2014,08,27,14,52,29.30
2014,08,27,14,53,29.40
2014,08,27,14,54,29.40
2014,08,27,14,55,29.40
2014,08,27,14,56,29.40
2014,08,27,14,57,29.40
2014,08,27,14,58,29.50
2014,08,27,14,59,29.40
2014,08,27,15,00,29.20
2014,08,27,15,01,28.80
2014,08,27,15,02,28.60
2014,08,27,15,03,28.30
2014,08,27,15,04,28.10
2014,08,27,15,05,27.80
2014,08,27,15,06,27.60
2014,08,27,15,07,27.30
2014,08,27,15,08,27.00
2014,08,27,15,09,26.70
2014,08,27,15,10,26.50
2014,08,27,15,11,26.40
2014,08,27,15,12,26.20
2014,08,27,15,13,26.00
2014,08,27,15,14,25.90
2014,08,27,15,15,25.90
2014,08,27,15,16,25.80
2014,08,27,15,17,25.70
2014,08,27,15,18,25.60
2014,08,27,15,19,25.40
2014,08,27,15,20,25.20
2014,08,27,15,21,25.20
2014,08,27,15,22,25.10
2014,08,27,15,23,25.00
2014,08,27,15,24,25.00
2014,08,27,15,25,24.90
2014,08,27,15,26,24.90
2014,08,27,15,27,24.90
2014,08,27,15,28,24.90
2014,08,27,15,29,24.90
2014,08,27,15,30,24.80
2014,08,27,15,31,24.70
2014,08,27,15,32,24.60
2014,08,27,15,33,24.50
2014,08,27,15,34,24.40
2014,08,27,15,35,24.30
2014,08,27,15,36,24.20
2014,08,27,15,37,24.10
2014,08,27,15,38,24.00
2014,08,27,15,39,24.00
2014,08,27,15,40,24.00
2014,08,27,15,41,24.00
2014,08,27,15,42,24.00
2014,08,27,15,43,23.90
2014,08,27,15,44,23.90
2014,08,27,15,45,23.70
2014,08,27,15,46,23.60
2014,08,27,15,47,23.50
2014,08,27,15,48,23.50
2014,08,27,15,49,23.60
2014,08,27,15,50,23.70
2014,08,27,15,51,23.70
2014,08,27,15,52,23.80
2014,08,27,15,53,23.90
2014,08,27,15,54,23.90
2014,08,27,15,55,24.00
2014,08,27,15,56,24.00
2014,08,27,15,57,24.10
2014,08,27,15,58,24.20
2014,08,27,15,59,24.20
2014,08,27,16,00,24.30
2014,08,27,16,01,24.40
2014,08,27,16,02,24.40
2014,08,27,16,03,24.50
2014,08,27,16,04,24.50
2014,08,27,16,05,24.50
2014,08,27,16,06,24.40
2014,08,27,16,07,24.30
2014,08,27,16,08,24.30
2014,08,27,16,09,24.30
2014,08,27,16,10,24.40
2014,08,27,16,11,24.50
2014,08,27,16,12,24.60
2014,08,27,16,13,24.70
2014,08,27,16,14,24.80
2014,08,27,16,15,24.90
2014,08,27,16,16,25.00
2014,08,27,16,17,25.10
2014,08,27,16,18,25.20
2014,08,27,16,19,25.30
2014,08,27,16,20,25.40
2014,08,27,16,21,25.40
2014,08,27,16,22,25.40
2014,08,27,16,23,25.50
2014,08,27,16,24,25.60
2014,08,27,16,25,25.70
2014,08,27,16,26,25.70
2014,08,27,16,27,25.80
2014,08,27,16,28,25.90
2014,08,27,16,29,25.90
2014,08,27,16,30,26.10
2014,08,27,16,31,26.20
2014,08,27,16,32,26.30
2014,08,27,16,33,26.40
2014,08,27,16,34,26.60
2014,08,27,16,35,26.70
2014,08,27,16,36,26.80
2014,08,27,16,37,26.90
2014,08,27,16,38,27.00
2014,08,27,16,39,27.10
2014,08,27,16,40,27.10
2014,08,27,16,41,27.20
2014,08,27,16,42,27.30
2014,08,27,16,43,27.40
2014,08,27,16,44,27.40
2014,08,27,16,45,27.50
2014,08,27,16,46,27.50
2014,08,27,16,47,27.60
2014,08,27,16,48,27.60
2014,08,27,16,49,27.60
2014,08,27,16,50,27.70
2014,08,27,16,51,27.70
2014,08,27,16,52,27.70
2014,08,27,16,53,27.80
2014,08,27,16,54,27.80
2014,08,27,16,55,27.80
2014,08,27,16,56,27.90
2014,08,27,16,57,27.90
2014,08,27,16,58,27.90
2014,08,27,16,59,27.90
2014,08,27,17,00,27.90
2014,08,27,17,01,27.90
2014,08,27,17,02,27.80
2014,08,27,17,03,27.80
2014,08,27,17,04,27.80
2014,08,27,17,05,27.80
2014,08,27,17,06,27.70
2014,08,27,17,07,27.60
2014,08,27,17,08,27.50
2014,08,27,17,09,27.40
2014,08,27,17,10,27.40
2014,08,27,17,11,27.30
2014,08,27,17,12,27.30
2014,08,27,17,13,27.30
2014,08,27,17,14,27.30
2014,08,27,17,15,27.30
2014,08,27,17,16,27.30
2014,08,27,17,17,27.20
2014,08,27,17,18,27.20
2014,08,27,17,19,27.10
2014,08,27,17,20,27.00
2014,08,27,17,21,26.90
2014,08,27,17,22,26.90